Regional Weather Roundup
Issued by NWS Sterling, VA

Home | Current Version | Previous Version | Graphics & Text | Print | Product List | Glossary On
Versions: 1 2 3 4 5 6 7 8 9 10 11 12 13 14 15 16 17 18 19 20 21 22 23 24 25 26 27 28 29 30 31 32 33 34 35 36 37 38 39 40 41 42 43 44 45 46 47 48 49 50
000
ASUS41 KLWX 251410
RWRLWX

REGIONAL WEATHER ROUNDUP
NATIONAL WEATHER SERVICE BALTIMORE MD/WASHINGTON DC
1000 AM EDT FRI JUL 25 2014

Note: "FAIR" indicates few or no clouds below 12,000 feet
with no significant weather and/or obstructions to visibility.
 TC=TEMPERATURE CELSIUS

 * =Non NWS site. Station does not report precipitation (e.g. rain,
    snow, etc.), thunder, or fog.

DCZ001-MDZ009-015-VAZ040>042-051-053>054-251500-
WASHINGTON METRO
  /KDAA//-FT BELVOIR

CITY           SKY/WX    TMP DP  RH WIND       PRES   REMARKS
WASHINGTON NAT MOSUNNY   75  49  39 N9        30.08S
DULLES         SUNNY     71  48  43 N8        30.09S
ANDREWS AFB    SUNNY     72  53  51 N8        30.08S
QUANTICO       MOSUNNY   73  58  59 NW7       30.09S
COLLEGE PARK*  SUNNY     73  50  43 N7        30.07S
LEESBURG*      SUNNY     72  55  56 N6        30.11S
MANASSAS*      SUNNY     68  55  64 N10       30.10R
GAITHERSBURG*  SUNNY     68  52  56 N3        30.13S

$$

MDZ006>007-011-014-251500-
BALTIMORE METRO

CITY           SKY/WX    TMP DP  RH WIND       PRES   REMARKS
BWI AIRPORT    MOSUNNY   73  50  44 N12       30.06F
MD SCIENCE CTR   N/A     73  51  46 MISG      30.07S
MARTIN STATE   SUNNY     72  57  60 NW9       30.08R
ANNAPOLIS      SUNNY     72  53  51 NW9       30.06R
FORT MEADE*    SUNNY     72  54  53 NW6       30.09F

$$

MDZ012-015-019>023-251500-
MARYLAND EASTERN SHORE

CITY           SKY/WX    TMP DP  RH WIND       PRES   REMARKS
OCEAN CITY     SUNNY     75  61  61 NW8       30.03R
SALISBURY      NOT AVBL
BAY BRIDGE AP*   N/A     72  52  49 N8        30.07R
CAMBRIDGE*     SUNNY     73  54  49 NW8       30.05R
EASTON*        SUNNY     73  57  56 N6        30.09R

$$

MDZ017>025-251500-
SOUTHERN MARYLAND

CITY           SKY/WX    TMP DP  RH WIND       PRES   REMARKS
PATUXENT RIVER MOSUNNY   73  60  63 NW9       30.06S
ST INIGOES     SUNNY     74  61  63 NW6       30.06R
LEONARDTOWN*   SUNNY     72  54  53 N5        30.08S

$$

MDZ003>005-251500-
NORTH CENTRAL MARYLAND

CITY           SKY/WX    TMP DP  RH WIND       PRES   REMARKS
FREDERICK*     SUNNY     70  54  56 CALM      30.12F
HAGERSTOWN APT SUNNY     68  48  48 VRB7      30.10F
WESTMINSTER*   SUNNY     66  55  68 N3        30.09F

$$

MDZ501>502-251500-
WESTERN MARYLAND

CITY           SKY/WX    TMP DP  RH WIND       PRES   REMARKS
OAKLAND*       SUNNY     63  50  63 W5        30.17R
CUMBERLAND*    SUNNY     72  54  53 CALM      30.15F

$$

VAZ025>031-251500-
SHENANDOAH VALLEY

CITY           SKY/WX    TMP DP  RH WIND       PRES   REMARKS
WINCHESTER*    SUNNY     70  54  56 CALM      30.11S
STAUNTON*      PTSUNNY   67  61  80 NE5       30.14S

$$

WVZ021-048>050-054>055-251500-
EASTERN WEST VIRGINIA PANHANDLE

CITY           SKY/WX    TMP DP  RH WIND       PRES   REMARKS
MARTINSBURG    SUNNY     71  53  52 N5        30.12R
PETERSBURG*    SUNNY     60  56  86 CALM      30.13F

$$

VAZ036>039-050-251500-
CENTRAL FOOTHILLS

CITY           SKY/WX    TMP DP  RH WIND       PRES   REMARKS
CHARLOTTESVILL SUNNY     70  58  65 NE6       30.11R
ORANGE*        SUNNY     70  59  68 CALM      30.11F

$$

VAZ055>057-251500-
NORTH AND CENTRAL PIEDMONT

CITY           SKY/WX    TMP DP  RH WIND       PRES   REMARKS
FREDERICKSBRG* SUNNY     71  58  63 CALM      30.08S
STAFFORD*      SUNNY     71  62  74 N3        30.13S

$$

NCZ024-NYZ072-PAZ021-071-VAZ022-071-251500-
OTHER REGIONAL OBSERVATIONS

CITY           SKY/WX    TMP DP  RH WIND       PRES   REMARKS
NEW YORK CITY  SUNNY     72  52  49 NE8       30.06S
PHILADELPHIA   MOSUNNY   73  54  51 VRB3      30.04S
PITTSBURGH     MOSUNNY   65  52  62 CALM      30.11F
ROANOKE        PTSUNNY   71  62  73 CALM      30.12F
RICHMOND       SUNNY     76  63  64 NE7       30.07S
RALEIGH        PTSUNNY   74  67  78 NE10      30.07S

$$

ANZ530>537-251500-
MARINE OBSERVATIONS

STATION/POSITION TIME  TEMP    WIND        PRES
                       AIR SEA DIR/SP/G
                 (UTC) (F)     (DEG/KT/KT) (MB)
THOMAS PT LIGHT  1400   70 78  350/  8/ 10 1018.5R
BALT KEY BRIDGE  1400   80     340/  6/  8 1017.8F
COVE POINT       1400   70     340/ 12/ 14 1017.9R
LEWISETTA        1400   73 79  360/  4/  6 1017.9R
SOLOMONS ISLAND  1400      80                N/A
PINEY POINT      1400           20/  5/  5   N/A

$$



USA.gov is the U.S. government's official web portal to all federal, state and local government web resources and services.